Home > Weather > Chesapeake > Past weeks

Flag for USA Past Weather in Chesapeake, Virginia, USA — Yesterday and Last 2 Weeks

Now
74 °F

More clouds than sun.


Feels Like: 73 °F
Forecast: 67 / 75 °F
Wind: 5 mph from Southeast

Location: Chesapeake Municipal Airport

Current Time: May 30, 2016 at 12:31:39 PM

Latest Report: May 30, 2016 at 11:55 AM


Visibility: 10 mi

Pressure: 30.02 "Hg

Humidity: 89%

Dew Point: 71 °F

Location of ChesapeakeLocation

Past Weather in Chesapeake — Graph

°F

Chesapeake Temperature Yesterday

Maximum temperature yesterday: 79 °F (at 10:10 AM)
Minimum temperature yesterday: 64 °F (at 2:15 AM)
Average temperature yesterday: 72 °F

High & Low Weather Summary for the Past Weeks

 TemperatureHumidityPressure
High89 °F (May 26, 4:15 PM)99% (May 17, 9:35 PM)30.27 "Hg (May 17, 9:35 PM)
Low39 °F (May 16, 5:35 AM)29% (May 16, 2:15 PM)29.79 "Hg (May 22, 3:55 AM)
Average65 °F77%30.08 "Hg
* Reported May 15 11:15 AM — May 30 11:15 AM, Chesapeake, Weather by CustomWeather, © 2016

Note: Actual official high and low records may vary slightly from our data, if they occured in-between our weather recording intervals... More about our weather records

Advertising

Chesapeake Weather History for the Previous 24 Hours

Scroll right to see more
 ConditionsComfort  
Time TempWeatherWind HumidityBarometerVisibility
11:15 AM
Mon, May 30
74 °FMore clouds than sun.5 mph88%30.02 "Hg10 mi
10:55 AM74 °FMostly cloudy.5 mph90%30.02 "Hg10 mi
10:35 AM74 °FLight rain. Mostly cloudy.5 mph91%30.02 "Hg10 mi
10:15 AM73 °FLight rain. Cloudy.5 mph93%30.03 "Hg10 mi
9:55 AM73 °FLight rain. More clouds than sun.No wind94%30.03 "Hg10 mi
9:35 AM72 °FLight rain. Mostly cloudy.3 mph95%30.03 "Hg10 mi
9:15 AM72 °FLight rain. Cloudy.3 mph95%30.03 "Hg10 mi
8:55 AM72 °FMore clouds than sun.No wind94%30.03 "Hg10 mi
8:35 AM72 °FOvercast.3 mph94%30.03 "Hg10 mi
8:15 AM71 °FOvercast.5 mph93%30.03 "Hg10 mi
7:55 AM71 °FLight rain. Cloudy.5 mph93%30.02 "Hg10 mi
7:15 AM71 °FLight rain. Partly sunny.6 mph95%30.02 "Hg10 mi
6:55 AM71 °FDrizzle. More clouds than sun.5 mph95%30.02 "Hg10 mi
6:15 AM72 °FMostly cloudy.5 mph95%30.02 "Hg10 mi
5:55 AM72 °FOvercast.3 mph95%30.01 "Hg10 mi
5:15 AM72 °FLight rain. Partly cloudy.No wind96%30.00 "Hg10 mi
4:55 AM72 °FPartly cloudy.5 mph96%30.00 "Hg10 mi
4:35 AM72 °FPassing clouds.5 mph97%30.00 "Hg10 mi
4:15 AM72 °FLight rain. Partly cloudy.3 mph98%30.00 "Hg10 mi
3:55 AM72 °FOvercast.5 mph98%30.00 "Hg10 mi
3:35 AM72 °FPassing clouds.No wind98%30.01 "Hg10 mi
3:15 AM72 °FClear.5 mph97%30.01 "Hg10 mi
2:55 AM72 °FClear.3 mph97%30.01 "Hg10 mi
2:15 AM73 °FPassing clouds.3 mph97%30.02 "Hg10 mi
1:55 AM73 °FOvercast.3 mph96%30.02 "Hg10 mi
1:15 AM73 °FPassing clouds.3 mph96%30.03 "Hg10 mi
12:55 AM73 °FClear.3 mph96%30.04 "Hg10 mi
12:35 AM73 °FClear.5 mph96%30.04 "Hg10 mi
12:15 AM73 °FClear.3 mph96%30.04 "Hg10 mi
11:55 PM
Sun, May 29
73 °FClear.5 mph95%30.04 "Hg10 mi
11:35 PM73 °FClear.5 mph95%30.04 "Hg10 mi
11:15 PM73 °FClear.3 mph94%30.05 "Hg10 mi
10:55 PM74 °FClear.3 mph94%30.05 "Hg10 mi
10:15 PM74 °FClear.5 mph93%30.05 "Hg10 mi
9:55 PM74 °FClear.5 mph93%30.05 "Hg10 mi
9:35 PM75 °FPassing clouds.8 mph91%30.05 "Hg10 mi
9:15 PM74 °FSunny.6 mph92%30.05 "Hg10 mi
8:55 PM75 °FSunny.6 mph90%30.05 "Hg10 mi
8:15 PM75 °FSunny.6 mph89%30.04 "Hg10 mi
7:50 PM76 °FSunny.5 mph90%30.04 "Hg10 mi
7:35 PM76 °FSunny.3 mph90%30.04 "Hg10 mi
7:15 PM76 °FSunny.No wind88%30.04 "Hg10 mi
6:55 PM76 °FScattered clouds.5 mph87%30.04 "Hg10 mi
6:35 PM77 °FScattered clouds.5 mph84%30.04 "Hg10 mi
6:15 PM78 °FScattered clouds.8 mph85%30.04 "Hg10 mi
5:55 PM78 °FScattered clouds.7 mph84%30.04 "Hg10 mi
5:35 PM77 °FScattered clouds.6 mph86%30.04 "Hg10 mi
5:15 PM76 °FBroken clouds.6 mph88%30.04 "Hg10 mi
4:55 PM74 °FLight rain. Cloudy.6 mph94%30.05 "Hg10 mi
4:35 PM73 °FRain. Broken clouds.6 mph94%30.06 "Hg7 mi
4:15 PM74 °FBroken clouds.5 mph94%30.07 "Hg10 mi
3:55 PM74 °FLight rain. Mostly cloudy.8 mph94%30.08 "Hg10 mi
3:35 PM74 °FHeavy rain. Cloudy.5 mph96%30.07 "Hg4 mi
3:15 PM74 °FLight rain. Mostly cloudy.No wind95%30.08 "Hg10 mi
2:55 PM74 °FLight rain. Cloudy.3 mph95%30.09 "Hg10 mi
2:35 PM75 °FLight rain. Cloudy.5 mph93%30.09 "Hg10 mi
2:15 PM74 °FLight rain. Cloudy.3 mph93%30.09 "Hg10 mi
1:55 PM74 °FBroken clouds.6 mph92%30.10 "Hg10 mi
1:35 PM75 °FLight rain. Broken clouds.5 mph91%30.10 "Hg10 mi
1:15 PM75 °FLight rain. Cloudy.5 mph93%30.10 "Hg7 mi
12:55 PM75 °FBroken clouds.8 mph92%30.11 "Hg10 mi
12:15 PM74 °FLight rain. Mostly cloudy.6 mph95%30.12 "Hg7 mi
Weather by CustomWeather, © 2016

See weather overviewHow to use our weather pages